Total_Precipitation_Accumulation
0.39 0.28 0.32 0.37 0.42 0.51 0.67 0.58 0.52 0.29 0.22 0.22 0.23 0.23 0.22 0.18 0.15 0.12 0.09 0.08 0.07 0.07 0.09 0.12 0.14 0.13 0.12 0.13 0.14 0.16 0.18 0.17 0.15 0.15 0.20 0.21 0.20 0.18 0.17 0.17 0.19 0.21 0.21 0.23
0.35 0.24 0.27 0.37 0.38 0.40 0.45 0.45 0.44 0.32 0.27 0.20 0.21 0.22 0.19 0.14 0.12 0.11 0.08 0.06 0.06 0.06 0.06 0.08 0.10 0.12 0.13 0.14 0.16 0.20 0.20 0.19 0.18 0.18 0.20 0.21 0.21 0.21 0.20 0.19 0.20 0.22 0.25 0.28
0.37 0.22 0.29 0.39 0.33 0.37 0.41 0.41 0.41 0.45 0.36 0.22 0.19 0.18 0.14 0.13 0.11 0.10 0.08 0.08 0.07 0.06 0.07 0.08 0.08 0.09 0.09 0.10 0.12 0.16 0.21 0.22 0.22 0.22 0.23 0.25 0.24 0.26 0.30 0.33 0.34 0.33 0.33 0.34
0.38 0.26 0.32 0.27 0.18 0.23 0.32 0.32 0.29 0.32 0.27 0.21 0.18 0.15 0.13 0.12 0.10 0.08 0.08 0.09 0.09 0.08 0.08 0.08 0.09 0.08 0.08 0.09 0.12 0.14 0.17 0.21 0.21 0.22 0.25 0.26 0.30 0.34 0.37 0.39 0.41 0.43 0.43 0.39
0.40 0.27 0.19 0.17 0.17 0.23 0.32 0.35 0.26 0.24 0.19 0.19 0.16 0.13 0.13 0.10 0.10 0.09 0.08 0.08 0.08 0.08 0.08 0.08 0.08 0.09 0.10 0.12 0.15 0.17 0.22 0.26 0.26 0.29 0.31 0.33 0.36 0.38 0.41 0.44 0.43 0.40 0.39 0.38
0.40 0.33 0.22 0.17 0.11 0.13 0.25 0.41 0.23 0.18 0.17 0.17 0.14 0.18 0.16 0.10 0.09 0.10 0.09 0.08 0.09 0.10 0.10 0.11 0.13 0.15 0.15 0.17 0.21 0.23 0.27 0.32 0.32 0.34 0.39 0.40 0.40 0.40 0.39 0.39 0.41 0.38 0.34 0.31
0.33 0.29 0.13 0.10 0.07 0.10 0.30 0.41 0.19 0.15 0.15 0.14 0.13 0.17 0.14 0.11 0.09 0.08 0.09 0.09 0.10 0.11 0.13 0.17 0.22 0.24 0.24 0.26 0.29 0.29 0.30 0.33 0.32 0.32 0.34 0.33 0.34 0.33 0.33 0.32 0.31 0.28 0.26 0.26
0.16 0.21 0.16 0.09 0.09 0.17 0.22 0.13 0.10 0.09 0.10 0.10 0.12 0.13 0.13 0.12 0.11 0.10 0.13 0.13 0.12 0.13 0.15 0.17 0.24 0.30 0.30 0.29 0.29 0.28 0.27 0.29 0.30 0.31 0.31 0.29 0.28 0.28 0.27 0.25 0.24 0.21 0.18 0.18
0.11 0.13 0.13 0.11 0.13 0.13 0.10 0.08 0.07 0.07 0.07 0.07 0.11 0.13 0.13 0.13 0.11 0.09 0.12 0.13 0.12 0.13 0.13 0.15 0.19 0.25 0.31 0.31 0.29 0.28 0.27 0.28 0.28 0.27 0.27 0.27 0.23 0.22 0.20 0.16 0.14 0.13 0.12 0.11
0.11 0.10 0.09 0.10 0.10 0.10 0.09 0.08 0.06 0.05 0.05 0.05 0.08 0.11 0.12 0.12 0.11 0.10 0.10 0.12 0.12 0.12 0.13 0.16 0.18 0.19 0.23 0.24 0.24 0.25 0.25 0.25 0.25 0.25 0.23 0.21 0.18 0.17 0.16 0.14 0.13 0.11 0.10 0.10
0.13 0.10 0.08 0.09 0.08 0.07 0.06 0.05 0.04 0.04 0.04 0.05 0.08 0.10 0.12 0.13 0.14 0.13 0.13 0.13 0.14 0.14 0.14 0.15 0.15 0.16 0.16 0.16 0.17 0.20 0.22 0.21 0.20 0.20 0.20 0.19 0.16 0.15 0.14 0.13 0.15 0.15 0.13 0.12
0.13 0.09 0.09 0.09 0.07 0.06 0.05 0.04 0.04 0.03 0.03 0.05 0.07 0.07 0.07 0.08 0.11 0.14 0.14 0.14 0.14 0.14 0.14 0.14 0.14 0.15 0.15 0.14 0.16 0.17 0.19 0.19 0.18 0.18 0.17 0.16 0.15 0.13 0.13 0.13 0.14 0.16 0.15 0.14
0.10 0.07 0.06 0.05 0.05 0.05 0.04 0.03 0.03 0.04 0.05 0.07 0.07 0.06 0.07 0.06 0.07 0.09 0.12 0.12 0.13 0.14 0.15 0.14 0.14 0.14 0.14 0.14 0.15 0.15 0.15 0.16 0.15 0.15 0.15 0.15 0.15 0.14 0.13 0.12 0.12 0.11 0.12 0.13
0.07 0.06 0.05 0.04 0.04 0.04 0.04 0.04 0.05 0.06 0.07 0.06 0.05 0.07 0.09 0.08 0.08 0.09 0.12 0.14 0.14 0.13 0.14 0.16 0.15 0.14 0.14 0.14 0.15 0.14 0.13 0.15 0.15 0.13 0.13 0.14 0.15 0.16 0.16 0.15 0.13 0.10 0.10 0.12
0.07 0.07 0.06 0.04 0.04 0.04 0.06 0.08 0.09 0.08 0.06 0.04 0.05 0.05 0.07 0.09 0.10 0.11 0.13 0.13 0.14 0.14 0.14 0.15 0.17 0.17 0.16 0.16 0.16 0.15 0.13 0.13 0.14 0.14 0.14 0.15 0.16 0.16 0.16 0.16 0.15 0.12 0.10 0.10
0.08 0.07 0.06 0.05 0.06 0.08 0.10 0.09 0.07 0.06 0.06 0.06 0.06 0.07 0.07 0.08 0.09 0.11 0.11 0.12 0.15 0.17 0.17 0.15 0.15 0.15 0.14 0.14 0.15 0.15 0.14 0.16 0.16 0.14 0.14 0.15 0.15 0.15 0.15 0.15 0.15 0.14 0.11 0.10
0.09 0.08 0.07 0.07 0.08 0.09 0.08 0.06 0.05 0.06 0.06 0.07 0.08 0.08 0.08 0.08 0.09 0.10 0.11 0.13 0.15 0.18 0.19 0.17 0.17 0.16 0.14 0.14 0.14 0.15 0.15 0.15 0.17 0.15 0.13 0.13 0.14 0.14 0.15 0.16 0.15 0.13 0.11 0.13
0.08 0.09 0.09 0.10 0.10 0.09 0.07 0.07 0.07 0.08 0.09 0.09 0.09 0.08 0.08 0.09 0.10 0.11 0.12 0.14 0.15 0.17 0.18 0.17 0.16 0.16 0.14 0.14 0.14 0.14 0.15 0.16 0.16 0.16 0.15 0.15 0.17 0.17 0.18 0.17 0.15 0.13 0.11 0.13
0.11 0.10 0.10 0.10 0.10 0.09 0.09 0.10 0.10 0.10 0.09 0.09 0.09 0.09 0.09 0.10 0.11 0.12 0.13 0.14 0.15 0.16 0.16 0.15 0.18 0.15 0.12 0.13 0.17 0.15 0.15 0.16 0.17 0.17 0.18 0.21 0.22 0.18 0.17 0.17 0.15 0.14 0.13 0.13
0.12 0.12 0.12 0.12 0.11 0.11 0.12 0.12 0.11 0.11 0.10 0.10 0.11 0.11 0.11 0.10 0.10 0.11 0.12 0.13 0.14 0.14 0.15 0.15 0.15 0.13 0.13 0.15 0.19 0.15 0.15 0.17 0.18 0.18 0.19 0.20 0.20 0.19 0.18 0.18 0.17 0.16 0.15 0.15
0.14 0.14 0.15 0.15 0.15 0.15 0.16 0.16 0.16 0.15 0.14 0.13 0.13 0.13 0.12 0.11 0.10 0.10 0.11 0.12 0.12 0.12 0.12 0.15 0.14 0.14 0.16 0.19 0.21 0.17 0.17 0.18 0.19 0.19 0.19 0.19 0.19 0.19 0.19 0.18 0.18 0.18 0.17 0.16
0.15 0.16 0.17 0.17 0.17 0.17 0.16 0.17 0.18 0.17 0.17 0.16 0.14 0.13 0.13 0.12 0.11 0.11 0.11 0.12 0.12 0.15 0.14 0.13 0.13 0.17 0.21 0.23 0.19 0.18 0.18 0.19 0.19 0.19 0.19 0.19 0.19 0.19 0.19 0.18 0.19 0.18 0.17 0.17
0.15 0.15 0.16 0.18 0.18 0.17 0.16 0.16 0.16 0.16 0.16 0.16 0.15 0.14 0.13 0.12 0.12 0.12 0.12 0.11 0.12 0.15 0.14 0.13 0.18 0.23 0.24 0.20 0.16 0.17 0.19 0.19 0.19 0.19 0.19 0.18 0.18 0.19 0.21 0.20 0.19 0.18 0.18 0.16
0.12 0.13 0.14 0.15 0.16 0.17 0.17 0.16 0.15 0.15 0.15 0.15 0.14 0.14 0.14 0.13 0.12 0.10 0.11 0.12 0.13 0.14 0.13 0.15 0.19 0.21 0.21 0.17 0.16 0.18 0.18 0.18 0.18 0.18 0.18 0.19 0.19 0.20 0.20 0.19 0.19 0.16 0.15 0.14
0.12 0.12 0.14 0.15 0.16 0.17 0.18 0.16 0.15 0.15 0.15 0.14 0.13 0.13 0.12 0.13 0.13 0.12 0.11 0.10 0.12 0.13 0.13 0.14 0.16 0.17 0.17 0.16 0.17 0.18 0.18 0.19 0.19 0.19 0.18 0.19 0.19 0.19 0.19 0.18 0.18 0.17 0.15 0.13
0.11 0.12 0.13 0.14 0.16 0.18 0.18 0.17 0.16 0.16 0.17 0.17 0.15 0.14 0.13 0.12 0.12 0.12 0.11 0.11 0.12 0.13 0.13 0.13 0.14 0.15 0.15 0.15 0.16 0.17 0.17 0.17 0.17 0.16 0.16 0.16 0.17 0.17 0.17 0.16 0.15 0.14 0.13 0.12
0.09 0.10 0.11 0.13 0.15 0.17 0.18 0.17 0.17 0.18 0.18 0.18 0.17 0.16 0.14 0.14 0.13 0.13 0.12 0.12 0.12 0.12 0.13 0.13 0.14 0.14 0.14 0.14 0.14 0.14 0.14 0.14 0.14 0.14 0.15 0.15 0.16 0.15 0.14 0.14 0.13 0.12 0.12 0.11